Location: Byhalia Creek
(34.8270°N, 89.8040°W)
Time: 19:13:51
(UTC+00:00)

SL-08 R/B - Pass Details

Date: 22 April 2026
Orbit: 667 x 729 km, 98.5° (Epoch: 21 May)

Event Time Altitude Azimuth Distance (km) Brightness Sun altitude
Rises 02:04:27 0° 17° (NNE) 3,155 6.8 -17.5°
Reaches altitude 10° 02:06:46 10° 21° (NNE) 2,229 6.0 -17.9°
Maximum altitude 02:11:36 58° 101° (E) 842 3.4 -18.8°
Enters shadow 02:14:35 22° 173° (S) 1,527 4.7 -19.3°
